Terminal Aerodrome Forecast
Issued by NWS Duluth, MN

Home | Current Version | Previous Version | Text Only | Print | Product List | Glossary On
Versions: 1 2 3 4 5 6 7 8 9 10 11 12 13 14 15 16 17 18 19 20 21 22 23 24 25 26
000
FTUS43 KDLH 280400 AAC
TAFINL
TAF AMD
KINL 280403Z 2804/2824 15006KT P6SM -SN SCT025 BKN070
      TEMPO 2806/2807 BKN015
     FM280700 15004KT P6SM SCT007 BKN015
     FM281000 15003KT 6SM BR OVC009
     FM281500 12004KT 5SM BR OVC005=

USA.gov is the U.S. government's official web portal to all federal, state and local government web resources and services.